Location: Camerons Lookout
(40.9833°S, 175.9333°E)
Time: 22:20:52
(UTC+00:00)

Cosmos 2297 Rocket - Pass Details

Date: 14 January 2026
Orbit: 838 x 843 km, 71.0° (Epoch: 18 February)

Event Time Altitude Azimuth Distance (km) Brightness Sun altitude
Rises 11:36:38 0° 216° (SW) 3,423 6.4 -26.7°
Reaches altitude 10° 11:39:29 10° 229° (SW) 2,480 5.3 -26.9°
Maximum altitude 11:44:01 25° 282° (WNW) 1,644 3.6 -27.0°
Enters shadow 11:44:22 25° 288° (WNW) 1,649 3.6 -27.0°
